Home   Weather   Riffa   Past weeks

Flag for Bahrain Past Weather in Riffa, Bahrain — Yesterday and Last 2 Weeks

Now
77 °F

Sunny.


Feels Like: 79 °F
Forecast: 70 / 79 °F
Wind: 21 mph from Northwest

Location: Bahrain International Airport

Current Time: Dec 5, 2016 at 1:40:59 pm

Latest Report: Dec 5, 2016 at 1:00 pm


Visibility: 10 mi

Pressure: 30.04 "Hg

Humidity: 69%

Dew Point: 66 °F

Location of RiffaLocation

Past Weather in Riffa — Graph

°F

Riffa Temperature Yesterday

Maximum temperature yesterday: 79 °F (at 11:00 am)
Minimum temperature yesterday: 73 °F (at 4:00 am)
Average temperature yesterday: 76 °F

High & Low Weather Summary for the Past Weeks

 TemperatureHumidityPressure
High86 °F (Dec 2, 2:00 pm)94% (Nov 25, 4:00 pm)30.18 "Hg (Nov 25, 4:00 pm)
Low66 °F (Nov 26, 12:00 am)47% (Nov 21, 12:00 pm)29.89 "Hg (Nov 24, 1:00 pm)
Average74 °F71%30.04 "Hg
* Reported Nov 20 12:00 pm — Dec 5 12:00 pm, Riffa, Weather by CustomWeather, © 2016

Note: Actual official high and low records may vary slightly from our data, if they occured in-between our weather recording intervals... More about our weather records

Advertising

Riffa Weather History for the Previous 24 Hours

Scroll right to see more
 ConditionsComfort  
Time TempWeatherWind HumidityBarometerVisibility
12:00 pm
Mon, Dec 5
75 °FSunny.18 mph74%30.07 "Hg10 mi
11:00 am73 °FSunny.18 mph74%30.09 "Hg10 mi
10:00 am73 °FSunny.18 mph74%30.09 "Hg10 mi
9:00 am72 °FSunny.15 mph78%30.12 "Hg6 mi
8:00 am70 °FSunny.15 mph83%30.09 "Hg5 mi
7:00 am70 °FSunny.16 mph83%30.09 "Hg5 mi
6:00 am70 °FClear.16 mph83%30.07 "Hg5 mi
5:00 am72 °FClear.15 mph83%30.07 "Hg5 mi
4:00 am73 °FClear.17 mph83%30.07 "Hg5 mi
3:00 am73 °FClear.17 mph83%30.07 "Hg5 mi
2:00 am73 °FClear.15 mph78%30.07 "Hg5 mi
1:00 am73 °FClear.18 mph78%30.09 "Hg5 mi
12:00 am73 °FClear.18 mph78%30.09 "Hg5 mi
11:00 pm
Sun, Dec 4
75 °FClear.16 mph74%30.09 "Hg10 mi
10:00 pm75 °FClear.16 mph74%30.12 "Hg10 mi
9:00 pm75 °FClear.17 mph69%30.12 "Hg10 mi
8:00 pm75 °FClear.18 mph69%30.12 "Hg5 mi
7:00 pm75 °FClear.18 mph69%30.12 "Hg5 mi
6:00 pm75 °FClear.21 mph69%30.12 "Hg5 mi
5:00 pm75 °FClear.23 mph69%30.12 "Hg5 mi
4:00 pm77 °FSunny.23 mph65%30.12 "Hg10 mi
3:00 pm79 °FSunny.23 mph58%30.12 "Hg10 mi
2:00 pm79 °FSunny.22 mph58%30.12 "Hg10 mi
1:00 pm79 °FSunny.20 mph58%30.12 "Hg10 mi
Weather by CustomWeather, © 2016

See weather overviewHow to use our weather pages